カタログに戻る

FENGYUN 1C DEB

運用中PO
NORAD 30761·DEBRIS·🇨🇳 China

打ち上げ May 10, 1999 から Taiyuan Satellite Launch Center

Loading…

次のパス (今後24時間)

TLE

最新Source: Space-Track

元期: Sep 13, 2026, 18:42 UTC

1 30761U 99025ATX 26256.77921981  .00001150  00000-0  38956-3 0  9998
2 30761  98.9795 199.3026 0081792 225.2609 134.1899 14.36971335 16913

AllMySatでFENGYUN 1C DEBをリアルタイム追跡

Download on the App Store